Voltar ao catálogo

DELTA 1 DEB

AtivoLEO
NORAD 7175·DEBRIS·🇺🇸 United States

Lançado Nov 6, 1973 de Vandenberg Space Force Base

Loading…

Próximas Passagens (próximas 24 horas)

TLE

EnvelhecendoSource: Space-Track

Época: Sep 12, 2026, 13:17 UTC

1 07175U 73086EM  26255.55352779  .00000145  00000-0  66112-3 0  9996
2 07175 102.5902 126.2027 0196311  43.9467  23.6426 12.94235141480259

Acompanhe DELTA 1 DEB em tempo real com AllMySat

Download on the App Store